• In Uzbekistan
  • List of Countries
  • For 7 days
  • Water Temperature
  • Satellite Maps
  • Weather Map
  • Weather Widgets
  • user-avatar
    Login

    Hourly Weather Posad

    Today, 23 April, Tuesday

    Time Temperature Precipitation Wind Pressure Humidity
    00:00 +10°C° 0 mm 1 mps 757 mmHg 52%
    01:00 +9°C° 0 mm 1 mps 757 mmHg 53%
    02:00 +8°C° 0 mm 0 mps 757 mmHg 55%
    03:00 +8°C° 0 mm 0 mps 757 mmHg 56%
    04:00 +7°C° 0 mm 0 mps 757 mmHg 58%
    05:00 +7°C° 0 mm 0 mps 757 mmHg 59%
    06:00 +9°C° 0 mm 0 mps 757 mmHg 55%
    07:00 +12°C° 0 mm 1 mps 757 mmHg 51%
    08:00 +14°C° 0 mm 1 mps 758 mmHg 46%
    09:00 +16°C° 0 mm 1 mps 758 mmHg 41%
    10:00 +18°C° 0 mm 1 mps 758 mmHg 37%
    11:00 +20°C° 0 mm 1 mps 758 mmHg 32%
    12:00 +21°C° 0 mm 1 mps 758 mmHg 31%
    13:00 +21°C° 0 mm 1 mps 757 mmHg 30%
    14:00 +21°C° 0 mm 1 mps 757 mmHg 28%
    15:00 +21°C° 0 mm 1 mps 757 mmHg 29%
    16:00 +19°C° 0 mm 0 mps 757 mmHg 31%
    17:00 +18°C° 0 mm 0 mps 757 mmHg 32%
    18:00 +16°C° 0 mm 0 mps 756 mmHg 36%
    19:00 +14°C° 0 mm 0 mps 756 mmHg 41%
    20:00 +13°C° 0 mm 1 mps 756 mmHg 46%
    21:00 +13°C° 0 mm 1 mps 756 mmHg 48%
    22:00 +12°C° 0 mm 1 mps 757 mmHg 50%
    23:00 +11°C° 0 mm 1 mps 757 mmHg 52%

    Tomorrow, 24 April, Wednesday

    Time Temperature Precipitation Wind Pressure Humidity
    00:00 +10°C° 0 mm 0 mps 757 mmHg 53%
    01:00 +10°C° 0 mm 0 mps 757 mmHg 54%
    02:00 +9°C° 0 mm 0 mps 757 mmHg 54%
    03:00 +9°C° 0 mm 0 mps 757 mmHg 55%
    04:00 +9°C° 0 mm 0 mps 757 mmHg 56%
    05:00 +9°C° 0 mm 0 mps 757 mmHg 57%
    06:00 +11°C° 0 mm 0 mps 757 mmHg 54%
    07:00 +14°C° 0 mm 1 mps 757 mmHg 50%
    08:00 +16°C° 0 mm 1 mps 758 mmHg 46%
    09:00 +18°C° 0 mm 1 mps 758 mmHg 43%
    10:00 +19°C° 0 mm 1 mps 757 mmHg 39%
    11:00 +20°C° 0 mm 2 mps 757 mmHg 35%
    12:00 +20°C° 0 mm 2 mps 757 mmHg 35%
    13:00 +20°C° 0 mm 2 mps 757 mmHg 35%
    14:00 +21°C° 0 mm 3 mps 757 mmHg 35%
    15:00 +20°C° 0 mm 3 mps 756 mmHg 37%
    16:00 +20°C° 0 mm 2 mps 756 mmHg 40%
    17:00 +20°C° 0 mm 2 mps 756 mmHg 42%
    18:00 +18°C° 0 mm 2 mps 756 mmHg 47%
    19:00 +16°C° 0 mm 2 mps 756 mmHg 52%
    20:00 +14°C° 0 mm 2 mps 756 mmHg 57%
    21:00 +14°C° 0 mm 2 mps 756 mmHg 58%
    22:00 +13°C° 0 mm 2 mps 756 mmHg 59%
    23:00 +13°C° 0 mm 2 mps 756 mmHg 61%

    Day after tomorrow, 25 April, Thursday

    Time Temperature Precipitation Wind Pressure Humidity
    00:00 +12°C° 0 mm 2 mps 756 mmHg 61%
    01:00 +12°C° 0 mm 1 mps 756 mmHg 61%
    02:00 +12°C° 0 mm 1 mps 756 mmHg 62%
    03:00 +11°C° 0 mm 1 mps 756 mmHg 62%
    04:00 +11°C° 0 mm 1 mps 756 mmHg 63%
    05:00 +11°C° 0 mm 1 mps 756 mmHg 64%
    06:00 +12°C° 0 mm 1 mps 756 mmHg 60%
    07:00 +14°C° 0 mm 2 mps 756 mmHg 56%
    08:00 +16°C° 0 mm 2 mps 756 mmHg 52%
    09:00 +17°C° 0 mm 2 mps 756 mmHg 48%
    10:00 +19°C° 0 mm 3 mps 756 mmHg 43%
    11:00 +20°C° 0 mm 4 mps 755 mmHg 38%
    12:00 +20°C° 0 mm 4 mps 755 mmHg 37%
    13:00 +21°C° 0 mm 4 mps 755 mmHg 37%
    14:00 +21°C° 0 mm 4 mps 754 mmHg 37%
    15:00 +21°C° 0 mm 3 mps 754 mmHg 39%
    16:00 +21°C° 0 mm 3 mps 754 mmHg 41%
    17:00 +21°C° 0 mm 2 mps 753 mmHg 43%
    18:00 +19°C° 0 mm 2 mps 753 mmHg 48%
    19:00 +17°C° 0 mm 2 mps 753 mmHg 53%
    20:00 +15°C° 0 mm 2 mps 753 mmHg 58%
    21:00 +14°C° 0 mm 2 mps 753 mmHg 60%
    22:00 +14°C° 0 mm 2 mps 753 mmHg 62%
    23:00 +13°C° 0 mm 2 mps 753 mmHg 64%

    26 April, Friday

    Time Temperature Precipitation Wind Pressure Humidity
    00:00 +13°C° 0 mm 2 mps 753 mmHg 64%
    01:00 +12°C° 0 mm 2 mps 753 mmHg 65%
    02:00 +12°C° 0 mm 2 mps 753 mmHg 66%
    03:00 +12°C° 0 mm 2 mps 752 mmHg 67%
    04:00 +10°C° 0 mm 2 mps 752 mmHg 68%
    05:00 +10°C° 0 mm 2 mps 752 mmHg 69%
    06:00 +13°C° 0 mm 2 mps 752 mmHg 65%
    07:00 +14°C° 0 mm 3 mps 752 mmHg 60%
    08:00 +16°C° 0 mm 3 mps 752 mmHg 56%
    09:00 +18°C° 0 mm 4 mps 751 mmHg 51%
    10:00 +19°C° 0 mm 4 mps 751 mmHg 47%
    11:00 +20°C° 0 mm 5 mps 751 mmHg 42%
    12:00 +21°C° 0 mm 5 mps 750 mmHg 41%
    13:00 +21°C° 0 mm 5 mps 750 mmHg 41%
    14:00 +22°C° 0 mm 5 mps 750 mmHg 40%
    15:00 +21°C° 0 mm 4 mps 749 mmHg 42%
    16:00 +21°C° 0 mm 4 mps 749 mmHg 44%
    17:00 +21°C° 0 mm 3 mps 748 mmHg 46%
    18:00 +19°C° 0 mm 3 mps 748 mmHg 52%
    19:00 +17°C° 0 mm 3 mps 748 mmHg 58%
    20:00 +16°C° 0 mm 3 mps 748 mmHg 64%
    21:00 +14°C° 0 mm 3 mps 748 mmHg 65%
    22:00 +13°C° 0 mm 3 mps 747 mmHg 66%
    23:00 +13°C° 0 mm 3 mps 747 mmHg 67%

    27 April, Saturday

    Time Temperature Precipitation Wind Pressure Humidity
    00:00 +12°C° 0 mm 3 mps 747 mmHg 68%
    01:00 +11°C° 0 mm 3 mps 747 mmHg 68%
    02:00 +11°C° 0 mm 3 mps 746 mmHg 69%
    03:00 +10°C° 0 mm 3 mps 746 mmHg 70%
    04:00 +10°C° 0 mm 3 mps 746 mmHg 71%
    05:00 +10°C° 0 mm 3 mps 745 mmHg 72%
    06:00 +11°C° 0 mm 3 mps 745 mmHg 69%
    07:00 +13°C° 0 mm 3 mps 745 mmHg 65%
    08:00 +14°C° 0 mm 4 mps 745 mmHg 62%
    09:00 +17°C° 0 mm 4 mps 744 mmHg 59%
    10:00 +19°C° 0 mm 4 mps 744 mmHg 57%
    11:00 +20°C° 0 mm 5 mps 744 mmHg 54%
    12:00 +21°C° 0 mm 5 mps 743 mmHg 52%
    13:00 +22°C° 0 mm 4 mps 743 mmHg 51%
    14:00 +23°C° 0 mm 4 mps 743 mmHg 49%
    15:00 +23°C° 0 mm 4 mps 742 mmHg 51%
    16:00 +23°C° 0 mm 4 mps 742 mmHg 53%
    17:00 +24°C° 0 mm 3 mps 741 mmHg 55%
    18:00 +21°C° 0.8 mm 3 mps 741 mmHg 64%
    19:00 +19°C° 0.8 mm 2 mps 741 mmHg 74%
    20:00 +17°C° 0.8 mm 2 mps 741 mmHg 83%
    21:00 +16°C° 0.5 mm 2 mps 741 mmHg 87%
    22:00 +16°C° 0.5 mm 2 mps 741 mmHg 90%
    23:00 +14°C° 0.5 mm 3 mps 741 mmHg 94%

    28 April, Sunday

    Time Temperature Precipitation Wind Pressure Humidity
    00:00 +14°C° 0 mm 3 mps 741 mmHg 95%
    01:00 +14°C° 0 mm 3 mps 741 mmHg 95%
    02:00 +14°C° 0 mm 3 mps 741 mmHg 96%
    03:00 +14°C° 0.5 mm 3 mps 741 mmHg 96%
    04:00 +15°C° 0.5 mm 2 mps 741 mmHg 95%
    05:00 +15°C° 0.5 mm 2 mps 741 mmHg 95%
    06:00 +15°C° 1.3 mm 2 mps 741 mmHg 94%
    07:00 +16°C° 1.3 mm 2 mps 741 mmHg 93%
    08:00 +16°C° 1.3 mm 2 mps 741 mmHg 92%
    09:00 +17°C° 1 mm 2 mps 741 mmHg 88%
    10:00 +18°C° 1 mm 2 mps 742 mmHg 84%
    11:00 +19°C° 1 mm 2 mps 742 mmHg 80%
    12:00 +18°C° 1.1 mm 2 mps 742 mmHg 81%
    13:00 +19°C° 1.1 mm 1 mps 742 mmHg 82%
    14:00 +19°C° 1.1 mm 1 mps 743 mmHg 83%
    15:00 +19°C° 0.8 mm 1 mps 743 mmHg 84%
    16:00 +18°C° 0.8 mm 1 mps 743 mmHg 86%
    17:00 +18°C° 0.8 mm 1 mps 743 mmHg 88%
    18:00 +16°C° 0.6 mm 1 mps 743 mmHg 90%
    19:00 +16°C° 0.6 mm 1 mps 744 mmHg 92%
    20:00 +15°C° 0.6 mm 1 mps 744 mmHg 94%
    21:00 +15°C° 0.5 mm 1 mps 744 mmHg 95%
    22:00 +14°C° 0.5 mm 1 mps 744 mmHg 96%
    23:00 +14°C° 0.5 mm 2 mps 744 mmHg 97%
    Show more